Time,TemperatureF,DewpointF,PressureIn,WindDirection,WindDirectionDegrees,WindSpeedMPH,WindSpeedGustMPH,Humidity,HourlyPrecipIn,Conditions,Clouds,dailyrainin,SoftwareType,DateUTC
2013-04-21 00:00:00,67.9,38.5,29.86,SSW,197,10.0,10.0,34,0.00,,,0.00,Wunderground v.1.15,2013-04-21 07:00:00,
2013-04-21 00:10:00,67.9,38.5,29.86,SSW,205,11.0,11.0,34,0.00,,,0.00,Wunderground v.1.15,2013-04-21 07:10:00,
2013-04-21 00:20:00,67.3,38.0,29.86,SSW,195,10.0,10.0,34,0.00,,,0.00,Wunderground v.1.15,2013-04-21 07:20:00,
2013-04-21 00:30:00,67.2,37.9,29.85,South,188,11.0,11.0,34,0.00,,,0.00,Wunderground v.1.15,2013-04-21 07:30:00,
2013-04-21 00:40:00,67.2,37.9,29.86,SSW,200,12.0,14.0,34,0.00,,,0.00,Wunderground v.1.15,2013-04-21 07:40:00,
2013-04-21 00:50:00,67.3,38.0,29.86,SSW,202,13.0,13.0,34,0.00,,,0.00,Wunderground v.1.15,2013-04-21 07:50:00,
2013-04-21 01:00:00,66.3,37.1,29.86,SSW,194,8.0,10.0,34,0.00,,,0.00,Wunderground v.1.15,2013-04-21 08:00:00,
2013-04-21 01:10:00,67.7,37.5,29.85,South,190,10.0,14.0,33,0.00,,,0.00,Wunderground v.1.15,2013-04-21 08:10:00,
2013-04-21 01:20:00,66.9,36.8,29.86,South,171,9.0,9.0,33,0.00,,,0.00,Wunderground v.1.15,2013-04-21 08:20:00,
2013-04-21 01:30:00,66.5,37.2,29.86,SSW,202,8.0,8.0,34,0.00,,,0.00,Wunderground v.1.15,2013-04-21 08:30:00,
2013-04-21 01:40:00,66.7,38.2,29.86,SSW,208,10.0,12.0,35,0.00,,,0.00,Wunderground v.1.15,2013-04-21 08:40:00,
2013-04-21 01:50:00,66.5,37.2,29.85,SSW,198,11.0,11.0,34,0.00,,,0.00,Wunderground v.1.15,2013-04-21 08:50:00,
2013-04-21 02:00:00,66.0,37.5,29.86,South,188,10.0,10.0,35,0.00,,,0.00,Wunderground v.1.15,2013-04-21 09:00:00,
2013-04-21 02:10:00,65.9,37.5,29.85,SSW,213,10.0,11.0,35,0.00,,,0.00,Wunderground v.1.15,2013-04-21 09:10:00,
2013-04-21 02:20:00,65.5,37.1,29.85,SSW,202,9.0,10.0,35,0.00,,,0.00,Wunderground v.1.15,2013-04-21 09:20:00,
2013-04-21 02:30:00,65.6,36.5,29.84,SSW,192,11.0,12.0,34,0.00,,,0.00,Wunderground v.1.15,2013-04-21 09:30:00,
2013-04-21 02:40:00,65.5,37.1,29.84,South,185,11.0,12.0,35,0.00,,,0.00,Wunderground v.1.15,2013-04-21 09:40:00,
2013-04-21 02:50:00,65.3,36.9,29.84,SSW,192,11.0,12.0,35,0.00,,,0.00,Wunderground v.1.15,2013-04-21 09:50:00,
2013-04-21 03:00:00,65.1,36.8,29.84,SSW,211,11.0,11.0,35,0.00,,,0.00,Wunderground v.1.15,2013-04-21 10:00:00,
2013-04-21 03:10:00,64.6,36.3,29.84,SSW,210,9.0,10.0,35,0.00,,,0.00,Wunderground v.1.15,2013-04-21 10:10:00,
2013-04-21 03:20:00,64.4,36.1,29.84,SW,219,8.0,8.0,35,0.00,,,0.00,Wunderground v.1.15,2013-04-21 10:20:00,
2013-04-21 03:30:00,64.3,36.0,29.84,SSW,198,5.0,10.0,35,0.00,,,0.00,Wunderground v.1.15,2013-04-21 10:30:00,
2013-04-21 03:40:00,65.0,35.9,29.84,SSW,211,8.0,10.0,34,0.00,,,0.00,Wunderground v.1.15,2013-04-21 10:40:00,
2013-04-21 03:50:00,64.8,36.5,29.84,SW,216,9.0,10.0,35,0.00,,,0.00,Wunderground v.1.15,2013-04-21 10:50:00,
2013-04-21 04:00:00,63.9,36.4,29.84,SW,219,10.0,10.0,36,0.00,,,0.00,Wunderground v.1.15,2013-04-21 11:00:00,
2013-04-21 04:10:00,63.0,36.3,29.84,SSW,212,9.0,9.0,37,0.00,,,0.00,Wunderground v.1.15,2013-04-21 11:10:00,
2013-04-21 04:20:00,62.5,36.5,29.85,SW,225,7.0,7.0,38,0.00,,,0.00,Wunderground v.1.15,2013-04-21 11:20:00,
2013-04-21 04:30:00,61.2,35.4,29.85,SW,225,0.0,10.0,38,0.00,,,0.00,Wunderground v.1.15,2013-04-21 11:30:00,
2013-04-21 04:40:00,61.2,35.4,29.85,SW,225,1.0,10.0,38,0.00,,,0.00,Wunderground v.1.15,2013-04-21 11:40:00,
2013-04-21 04:50:00,60.9,34.4,29.85,SW,225,3.0,3.0,37,0.00,,,0.00,Wunderground v.1.15,2013-04-21 11:50:00,
2013-04-21 05:00:00,60.3,34.6,29.85,SW,225,0.0,10.0,38,0.00,,,0.00,Wunderground v.1.15,2013-04-21 12:00:00,
2013-04-21 05:10:00,60.0,35.0,29.85,SW,225,0.0,10.0,39,0.00,,,0.00,Wunderground v.1.15,2013-04-21 12:10:00,
2013-04-21 05:20:00,59.7,34.7,29.86,SW,225,0.0,10.0,39,0.00,,,0.00,Wunderground v.1.15,2013-04-21 12:20:00,
2013-04-21 05:30:00,59.1,34.1,29.86,SW,225,0.0,10.0,39,0.00,,,0.00,Wunderground v.1.15,2013-04-21 12:30:00,
2013-04-21 05:40:00,58.4,34.2,29.86,SW,225,0.0,10.0,40,0.00,,,0.00,Wunderground v.1.15,2013-04-21 12:40:00,
2013-04-21 05:50:00,57.9,33.7,29.86,SW,225,0.0,10.0,40,0.00,,,0.00,Wunderground v.1.15,2013-04-21 12:50:00,
2013-04-21 06:00:00,58.4,34.2,29.87,SW,225,0.0,10.0,40,0.00,,,0.00,Wunderground v.1.15,2013-04-21 13:00:00,
2013-04-21 06:10:00,57.3,33.8,29.87,SW,225,0.0,10.0,41,0.00,,,0.00,Wunderground v.1.15,2013-04-21 13:10:00,
2013-04-21 06:20:00,57.0,33.5,29.87,SW,225,0.0,10.0,41,0.00,,,0.00,Wunderground v.1.15,2013-04-21 13:20:00,
2013-04-21 06:30:00,57.3,33.8,29.88,SW,225,0.0,10.0,41,0.00,,,0.00,Wunderground v.1.15,2013-04-21 13:30:00,
2013-04-21 06:40:00,58.6,34.3,29.88,SW,225,0.0,10.0,40,0.00,,,0.00,Wunderground v.1.15,2013-04-21 13:40:00,
2013-04-21 06:50:00,58.1,33.9,29.88,SW,225,1.0,10.0,40,0.00,,,0.00,Wunderground v.1.15,2013-04-21 13:50:00,
2013-04-21 07:00:00,58.9,34.0,29.89,SW,225,1.0,1.0,39,0.00,,,0.00,Wunderground v.1.15,2013-04-21 14:00:00,
2013-04-21 07:10:00,58.7,33.1,29.89,SW,225,1.0,10.0,38,0.00,,,0.00,Wunderground v.1.15,2013-04-21 14:10:00,
2013-04-21 07:20:00,56.4,33.6,29.90,NW,307,3.0,10.0,42,0.00,,,0.00,Wunderground v.1.15,2013-04-21 14:20:00,
2013-04-21 07:30:00,56.4,33.6,29.90,NW,308,3.0,3.0,42,0.00,,,0.00,Wunderground v.1.15,2013-04-21 14:30:00,
2013-04-21 07:40:00,56.9,33.4,29.90,SSW,207,4.0,10.0,41,0.00,,,0.00,Wunderground v.1.15,2013-04-21 14:40:00,
2013-04-21 07:50:00,57.3,33.2,29.90,SW,236,5.0,10.0,40,0.00,,,0.00,Wunderground v.1.15,2013-04-21 14:50:00,
2013-04-21 08:00:00,58.1,33.2,29.90,WSW,256,6.0,10.0,39,0.00,,,0.00,Wunderground v.1.15,2013-04-21 15:00:00,
2013-04-21 08:10:00,58.6,33.7,29.90,WSW,256,8.0,11.0,39,0.00,,,0.00,Wunderground v.1.15,2013-04-21 15:10:00,
2013-04-21 08:20:00,59.0,33.4,29.90,West,263,7.0,7.0,38,0.00,,,0.00,Wunderground v.1.15,2013-04-21 15:20:00,
2013-04-21 08:30:00,60.0,33.6,29.90,WSW,254,5.0,5.0,37,0.00,,,0.00,Wunderground v.1.15,2013-04-21 15:30:00,
2013-04-21 08:40:00,60.9,34.4,29.90,SW,235,4.0,4.0,37,0.00,,,0.00,Wunderground v.1.15,2013-04-21 15:40:00,
2013-04-21 08:50:00,61.8,34.5,29.90,SW,234,4.0,4.0,36,0.00,,,0.00,Wunderground v.1.15,2013-04-21 15:50:00,
2013-04-21 09:00:00,63.2,35.1,29.90,SW,235,1.0,10.0,35,0.00,,,0.00,Wunderground v.1.15,2013-04-21 16:00:00,
2013-04-21 09:10:00,64.5,35.5,29.90,SW,235,1.0,1.0,34,0.00,,,0.00,Wunderground v.1.15,2013-04-21 16:10:00,
2013-04-21 09:20:00,65.6,35.7,29.90,SE,142,1.0,1.0,33,0.00,,,0.00,Wunderground v.1.15,2013-04-21 16:20:00,
2013-04-21 09:30:00,66.4,35.6,29.89,SSW,198,1.0,10.0,32,0.00,,,0.00,Wunderground v.1.15,2013-04-21 16:30:00,
2013-04-21 09:40:00,67.9,36.1,29.90,SSW,198,1.0,1.0,31,0.00,,,0.00,Wunderground v.1.15,2013-04-21 16:40:00,
2013-04-21 09:50:00,68.3,36.5,29.90,SSW,199,1.0,1.0,31,0.00,,,0.00,Wunderground v.1.15,2013-04-21 16:50:00,
2013-04-21 10:00:00,70.0,36.3,29.90,SSW,199,0.0,10.0,29,0.00,,,0.00,Wunderground v.1.15,2013-04-21 17:00:00,
2013-04-21 10:10:00,71.0,37.1,29.89,WNW,288,1.0,10.0,29,0.00,,,0.00,Wunderground v.1.15,2013-04-21 17:10:00,
2013-04-21 10:20:00,70.7,36.9,29.90,West,276,3.0,3.0,29,0.00,,,0.00,Wunderground v.1.15,2013-04-21 17:20:00,
2013-04-21 10:30:00,71.8,36.9,29.89,WSW,250,2.0,2.0,28,0.00,,,0.00,Wunderground v.1.15,2013-04-21 17:30:00,
2013-04-21 10:40:00,72.5,36.6,29.89,West,281,4.0,4.0,27,0.00,,,0.00,Wunderground v.1.15,2013-04-21 17:40:00,
2013-04-21 10:49:00,73.5,36.5,29.89,SW,222,4.0,4.0,26,0.00,,,0.00,Wunderground v.1.15,2013-04-21 17:49:00,
2013-04-21 11:00:00,74.6,37.4,29.89,WSW,256,3.0,10.0,26,0.00,,,0.00,Wunderground v.1.15,2013-04-21 18:00:00,
2013-04-21 11:10:00,75.1,36.9,29.89,SW,225,3.0,10.0,25,0.00,,,0.00,Wunderground v.1.15,2013-04-21 18:10:00,
2013-04-21 11:20:00,76.3,36.8,29.89,SW,224,3.0,3.0,24,0.00,,,0.00,Wunderground v.1.15,2013-04-21 18:20:00,
2013-04-21 11:30:00,76.9,37.3,29.88,South,188,3.0,10.0,24,0.00,,,0.00,Wunderground v.1.15,2013-04-21 18:30:00,
2013-04-21 11:40:00,78.0,37.2,29.87,West,274,5.0,10.0,23,0.00,,,0.00,Wunderground v.1.15,2013-04-21 18:40:00,
2013-04-21 11:50:00,78.4,36.4,29.87,NW,309,3.0,10.0,22,0.00,,,0.00,Wunderground v.1.15,2013-04-21 18:50:00,
2013-04-21 12:00:00,79.6,37.4,29.86,West,264,3.0,3.0,22,0.00,,,0.00,Wunderground v.1.15,2013-04-21 19:00:00,
2013-04-21 12:10:00,79.8,36.4,29.86,NNE,26,4.0,4.0,21,0.00,,,0.00,Wunderground v.1.15,2013-04-21 19:10:00,
2013-04-21 12:20:00,81.2,36.3,29.85,WNW,302,2.0,10.0,20,0.00,,,0.00,Wunderground v.1.15,2013-04-21 19:20:00,
2013-04-21 12:30:00,81.8,35.5,29.85,NNW,327,4.0,10.0,19,0.00,,,0.00,Wunderground v.1.15,2013-04-21 19:30:00,
2013-04-21 12:40:00,82.4,34.6,29.84,WNW,302,4.0,10.0,18,0.00,,,0.00,Wunderground v.1.15,2013-04-21 19:40:00,
2013-04-21 12:50:00,82.4,34.6,29.84,NNW,335,4.0,4.0,18,0.00,,,0.00,Wunderground v.1.15,2013-04-21 19:50:00,
2013-04-21 13:00:00,82.8,34.9,29.84,WNW,297,4.0,10.0,18,0.00,,,0.00,Wunderground v.1.15,2013-04-21 20:00:00,
2013-04-21 13:10:00,83.4,34.0,29.83,NNW,331,3.0,3.0,17,0.00,,,0.00,Wunderground v.1.15,2013-04-21 20:10:00,
2013-04-21 13:20:00,84.9,33.7,29.83,SSE,150,3.0,3.0,16,0.00,,,0.00,Wunderground v.1.15,2013-04-21 20:20:00,
2013-04-21 13:30:00,85.7,34.3,29.82,WNW,288,2.0,10.0,16,0.00,,,0.00,Wunderground v.1.15,2013-04-21 20:30:00,
2013-04-21 13:40:00,84.9,32.1,29.82,WSW,244,5.0,14.0,15,0.00,,,0.00,Wunderground v.1.15,2013-04-21 20:40:00,
2013-04-21 13:50:00,84.4,33.3,29.81,WSW,238,8.0,8.0,16,0.00,,,0.00,Wunderground v.1.15,2013-04-21 20:50:00,
2013-04-21 14:00:00,84.3,33.2,29.81,WSW,242,7.0,7.0,16,0.00,,,0.00,Wunderground v.1.15,2013-04-21 21:00:00,
2013-04-21 14:10:00,85.5,34.2,29.81,ESE,109,3.0,3.0,16,0.00,,,0.00,Wunderground v.1.15,2013-04-21 21:10:00,
2013-04-21 14:20:00,85.7,34.3,29.80,South,189,6.0,10.0,16,0.00,,,0.00,Wunderground v.1.15,2013-04-21 21:20:00,
2013-04-21 14:30:00,86.2,34.7,29.80,WSW,238,3.0,3.0,16,0.00,,,0.00,Wunderground v.1.15,2013-04-21 21:30:00,
2013-04-21 14:40:00,86.0,34.6,29.80,SSW,194,9.0,10.0,16,0.00,,,0.00,Wunderground v.1.15,2013-04-21 21:40:00,
2013-04-21 14:50:00,86.0,34.6,29.79,WNW,287,7.0,7.0,16,0.00,,,0.00,Wunderground v.1.15,2013-04-21 21:50:00,
2013-04-21 15:00:00,87.0,35.4,29.78,SSW,199,3.0,10.0,16,0.00,,,0.00,Wunderground v.1.15,2013-04-21 22:00:00,
2013-04-21 15:10:00,87.1,35.5,29.78,WSW,254,7.0,7.0,16,0.00,,,0.00,Wunderground v.1.15,2013-04-21 22:10:00,
2013-04-21 15:20:00,87.1,35.5,29.77,SSE,164,9.0,9.0,16,0.00,,,0.00,Wunderground v.1.15,2013-04-21 22:20:00,
2013-04-21 15:30:00,87.1,35.5,29.77,SSE,165,8.0,8.0,16,0.00,,,0.00,Wunderground v.1.15,2013-04-21 22:30:00,
2013-04-21 15:40:00,88.3,36.4,29.76,West,272,8.0,8.0,16,0.00,,,0.00,Wunderground v.1.15,2013-04-21 22:40:00,
2013-04-21 15:50:00,88.4,34.9,29.75,SSE,161,7.0,7.0,15,0.00,,,0.00,Wunderground v.1.15,2013-04-21 22:50:00,
2013-04-21 16:00:00,88.5,34.9,29.75,West,271,4.0,4.0,15,0.00,,,0.00,Wunderground v.1.15,2013-04-21 23:00:00,
2013-04-21 16:10:00,88.9,33.5,29.75,SW,226,9.0,9.0,14,0.00,,,0.00,Wunderground v.1.15,2013-04-21 23:10:00,
2013-04-21 16:20:00,89.2,33.8,29.74,SW,225,11.0,15.0,14,0.00,,,0.00,Wunderground v.1.15,2013-04-21 23:20:00,
2013-04-21 16:30:00,89.2,33.8,29.74,SW,231,13.0,13.0,14,0.00,,,0.00,Wunderground v.1.15,2013-04-21 23:30:00,
2013-04-21 16:40:00,89.3,33.8,29.73,West,260,6.0,10.0,14,0.00,,,0.00,Wunderground v.1.15,2013-04-21 23:40:00,
2013-04-21 16:50:00,90.0,32.5,29.73,West,261,10.0,14.0,13,0.00,,,0.00,Wunderground v.1.15,2013-04-21 23:50:00,
2013-04-21 17:00:00,89.5,32.2,29.74,West,261,15.0,15.0,13,0.00,,,0.00,Wunderground v.1.15,2013-04-22 00:00:00,
2013-04-21 17:10:00,88.9,33.5,29.73,West,265,18.0,21.0,14,0.00,,,0.00,Wunderground v.1.15,2013-04-22 00:10:00,
2013-04-21 17:20:00,89.1,33.7,29.73,West,269,20.0,22.0,14,0.00,,,0.00,Wunderground v.1.15,2013-04-22 00:20:00,
2013-04-21 17:30:00,88.5,33.2,29.73,WSW,252,20.0,20.0,14,0.00,,,0.00,Wunderground v.1.15,2013-04-22 00:30:00,
2013-04-21 17:40:00,87.6,35.9,29.74,WSW,254,21.0,21.0,16,0.00,,,0.00,Wunderground v.1.15,2013-04-22 00:40:00,
2013-04-21 17:50:00,87.1,37.0,29.73,West,265,20.0,20.0,17,0.00,,,0.00,Wunderground v.1.15,2013-04-22 00:50:00,
2013-04-21 18:00:00,86.3,39.2,29.73,West,266,21.0,21.0,19,0.00,,,0.00,Wunderground v.1.15,2013-04-22 01:00:00,
2013-04-21 18:10:00,85.6,39.9,29.73,West,260,20.0,20.0,20,0.00,,,0.00,Wunderground v.1.15,2013-04-22 01:10:00,
2013-04-21 18:20:00,85.3,39.7,29.73,WSW,248,19.0,19.0,20,0.00,,,0.00,Wunderground v.1.15,2013-04-22 01:20:00,
2013-04-21 18:30:00,85.2,40.8,29.73,WSW,257,18.0,18.0,21,0.00,,,0.00,Wunderground v.1.15,2013-04-22 01:30:00,
2013-04-21 18:40:00,84.2,41.2,29.73,WSW,246,17.0,23.0,22,0.00,,,0.00,Wunderground v.1.15,2013-04-22 01:40:00,
2013-04-21 18:50:00,83.6,40.7,29.73,WSW,250,18.0,19.0,22,0.00,,,0.00,Wunderground v.1.15,2013-04-22 01:50:00,
2013-04-21 19:00:00,82.9,41.3,29.73,WSW,244,16.0,16.0,23,0.00,,,0.00,Wunderground v.1.15,2013-04-22 02:00:00,
2013-04-21 19:10:00,81.9,41.6,29.73,SW,224,15.0,16.0,24,0.00,,,0.00,Wunderground v.1.15,2013-04-22 02:10:00,
2013-04-21 19:20:00,80.7,40.5,29.73,SW,229,17.0,17.0,24,0.00,,,0.00,Wunderground v.1.15,2013-04-22 02:20:00,
2013-04-21 19:30:00,79.7,40.8,29.74,South,190,15.0,17.0,25,0.00,,,0.00,Wunderground v.1.15,2013-04-22 02:30:00,
2013-04-21 19:40:00,79.2,40.3,29.74,SW,217,17.0,17.0,25,0.00,,,0.00,Wunderground v.1.15,2013-04-22 02:40:00,
2013-04-21 19:50:00,78.8,40.0,29.75,SW,223,18.0,18.0,25,0.00,,,0.00,Wunderground v.1.15,2013-04-22 02:50:00,
2013-04-21 20:00:00,78.7,39.9,29.76,SSW,213,17.0,19.0,25,0.00,,,0.00,Wunderground v.1.15,2013-04-22 03:00:00,
2013-04-21 20:10:00,78.2,40.5,29.76,WSW,237,17.0,17.0,26,0.00,,,0.00,Wunderground v.1.15,2013-04-22 03:10:00,
2013-04-21 20:20:00,78.1,40.4,29.76,WSW,249,16.0,16.0,26,0.00,,,0.00,Wunderground v.1.15,2013-04-22 03:20:00,
2013-04-21 20:30:00,77.8,40.2,29.77,SW,217,17.0,18.0,26,0.00,,,0.00,Wunderground v.1.15,2013-04-22 03:30:00,
2013-04-21 20:40:00,77.0,40.4,29.77,SW,221,18.0,21.0,27,0.00,,,0.00,Wunderground v.1.15,2013-04-22 03:40:00,
2013-04-21 20:50:00,76.8,39.3,29.77,WSW,243,16.0,21.0,26,0.00,,,0.00,Wunderground v.1.15,2013-04-22 03:50:00,
2013-04-21 21:00:00,76.4,39.9,29.78,SW,225,18.0,19.0,27,0.00,,,0.00,Wunderground v.1.15,2013-04-22 04:00:00,
2013-04-21 21:10:00,75.9,39.5,29.78,SW,234,20.0,20.0,27,0.00,,,0.00,Wunderground v.1.15,2013-04-22 04:10:00,
2013-04-21 21:20:00,75.8,39.4,29.78,SW,232,21.0,21.0,27,0.00,,,0.00,Wunderground v.1.15,2013-04-22 04:20:00,
2013-04-21 21:30:00,75.7,38.4,29.79,SW,228,18.0,18.0,26,0.00,,,0.00,Wunderground v.1.15,2013-04-22 04:30:00,
2013-04-21 21:40:00,75.1,38.8,29.79,SSW,196,17.0,17.0,27,0.00,,,0.00,Wunderground v.1.15,2013-04-22 04:40:00,
2013-04-21 21:50:00,74.4,38.2,29.80,SSW,211,15.0,16.0,27,0.00,,,0.00,Wunderground v.1.15,2013-04-22 04:50:00,
2013-04-21 22:00:00,74.4,39.2,29.80,SW,217,16.0,16.0,28,0.00,,,0.00,Wunderground v.1.15,2013-04-22 05:00:00,
2013-04-21 22:10:00,74.2,38.1,29.80,SW,217,17.0,17.0,27,0.00,,,0.00,Wunderground v.1.15,2013-04-22 05:10:00,
2013-04-21 22:20:00,74.4,38.2,29.80,SW,232,17.0,19.0,27,0.00,,,0.00,Wunderground v.1.15,2013-04-22 05:20:00,
2013-04-21 22:29:00,73.9,36.8,29.79,SSW,202,15.0,15.0,26,0.00,,,0.00,Wunderground v.1.15,2013-04-22 05:29:00,
2013-04-21 22:40:00,74.4,37.3,29.79,SSW,196,15.0,15.0,26,0.00,,,0.00,Wunderground v.1.15,2013-04-22 05:40:00,
2013-04-21 22:50:00,74.5,36.4,29.79,SSW,202,14.0,14.0,25,0.00,,,0.00,Wunderground v.1.15,2013-04-22 05:50:00,
2013-04-21 23:00:00,73.9,36.8,29.79,SSW,210,15.0,15.0,26,0.00,,,0.00,Wunderground v.1.15,2013-04-22 06:00:00,
2013-04-21 23:10:00,73.7,36.7,29.79,WSW,238,16.0,16.0,26,0.00,,,0.00,Wunderground v.1.15,2013-04-22 06:10:00,
2013-04-21 23:20:00,73.2,36.2,29.79,SW,214,17.0,19.0,26,0.00,,,0.00,Wunderground v.1.15,2013-04-22 06:20:00,
2013-04-21 23:30:00,72.7,36.8,29.79,SSW,213,16.0,19.0,27,0.00,,,0.00,Wunderground v.1.15,2013-04-22 06:30:00,
2013-04-21 23:40:00,72.2,36.3,29.79,SW,217,16.0,18.0,27,0.00,,,0.00,Wunderground v.1.15,2013-04-22 06:40:00,
2013-04-21 23:50:00,72.1,36.3,29.79,SSW,209,15.0,15.0,27,0.00,,,0.00,Wunderground v.1.15,2013-04-22 06:50:00,